Location: Copper Breaks State Park
(34.1132°N, 99.7492°W)
Time: 00:06:41
(UTC-06:00)

Daily predictions for brighter satellites

Satellite Brightness Start Highest point End
(mag) Time Altitude Azimuth Time Altitude Azimuth Time Altitude Azimuth
Cosmos 2278 Rocket 3.8 04:18:25 28° SE 04:18:25 28° SE 04:21:11 10° SE
Hubble Space Telescope 3.2 04:45:22 20° SE 04:45:22 20° SE 04:47:06 10° ESE
Cosmos 2237 Rocket 4.5 04:53:26 12° N 04:53:26 12° N 04:53:50 10° N
Cosmos 2123 Rocket 4.3 04:43:22 10° S 04:49:27 62° E 04:55:37 10° NNE
Cosmos 1486 Rocket 4.5 04:50:24 56° NE 04:50:46 58° ENE 04:56:00 10° SSE
Lacrosse 5 rocket 2.3 05:03:22 50° NE 05:03:22 50° NE 05:06:52 10° NE
Cosmos 2061 Rocket 3.9 05:01:47 62° NW 05:02:49 75° W 05:09:12 10° S
Atlas Centaur 2 3.0 05:01:56 53° WSW 05:03:46 66° S 05:12:15 10° ESE
Meteor 2-3 Rocket 4.4 04:59:50 10° S 05:05:26 54° E 05:11:01 10° NNE
Cosmos 1933 Rocket 3.9 05:03:28 10° S 05:07:45 64° E 05:12:05 10° NNE
SL-8 R/B 4.4 05:08:50 41° S 05:09:52 49° SE 05:14:27 10° ENE
OAO 1 Rocket 4.3 05:14:05 77° WSW 05:14:29 88° S 05:19:52 10° E
Meteor 2-10 Rocket 4.0 05:16:15 50° SW 05:16:15 50° SW 05:20:58 10° S
Cosmos 2016 Rocket 3.8 05:14:20 29° NNW 05:17:34 70° W 05:23:35 10° S
DELTA 2 R/B (1) 4.0 05:17:42 46° NNW 05:18:25 48° N 05:23:49 10° ENE
Cosmos 2242 Rocket 3.4 05:19:02 79° N 05:19:19 88° E 05:23:42 10° S
SL-16 R/B 2.2 05:23:39 52° WNW 05:23:39 52° WNW 05:29:03 10° N
IRS-P2 Rocket 4.4 05:22:40 10° N 05:27:56 78° WNW 05:33:07 10° SSW
Cosmos 1603 4.5 05:23:00 10° S 05:28:26 52° ESE 05:33:55 10° NNE
Meteor 2-12 Rocket 4.3 05:26:06 10° N 05:32:11 84° W 05:38:14 10° S
Cosmos 1862 Rocket 3.4 05:31:12 26° N 05:33:43 84° W 05:38:10 10° S
Meteor 1-26 Rocket 4.1 05:37:15 10° NNW 05:42:49 76° W 05:48:27 10° S
Cosmos 1864 Rocket 4.5 05:39:56 10° NNW 05:46:04 58° W 05:52:07 10° S
CZ-4B R/B 3.8 05:42:52 10° N 05:47:53 34° WNW 05:52:53 10° SW
Delta 2 Rocket 3.3 05:46:47 46° WNW 05:47:57 82° N 05:52:30 10° E
Cosmos 1992 Rocket 4.0 05:43:25 10° SSW 05:48:34 58° WNW 05:53:43 10° N
Cosmos 2297 3.8 05:48:16 20° NW 05:52:06 57° WSW 05:57:39 10° S
Cosmos 2369 Rocket 4.3 05:49:17 10° N 05:53:45 24° ENE 05:58:12 10° ESE
Cosmos 1408 2.6 05:52:14 10° S 05:55:57 86° E 05:59:42 10° N
Okean 1-7 4.3 05:54:40 10° N 05:58:50 42° E 06:02:57 10° SSE
Cosmos 2278 Rocket 3.7 06:00:21 17° WSW 06:00:21 17° WSW 06:02:53 10° SW
NOAA 6 3.9 05:55:48 10° N 06:00:52 67° WNW 06:05:56 10° SSW
SKYMED 2 3.6 05:56:37 10° SSE 06:00:57 86° ENE 06:05:18 10° N
Meteor 1-28 Rocket 3.8 06:02:57 10° SSW 06:06:23 33° W 06:08:04 22° NW
Cosmos 2233 Rocket 3.9 06:00:54 10° NNW 06:06:57 64° W 06:12:59 10° S
ISS -2.0 06:08:13 17° SW 06:08:17 17° SW 06:10:27 10° S
Cosmos 1503 Rocket 4.2 06:06:07 12° NNW 06:10:42 46° WSW 06:15:37 10° S
EO 1 Del DPAF 3.2 06:07:08 10° S 06:10:55 65° WSW 06:14:44 10° NNW
Cosmos 2221 Rocket 4.1 06:11:58 10° N 06:16:25 63° E 06:20:51 10° SSE
Okean-O 3.0 06:12:42 10° N 06:16:53 41° WNW 06:21:02 10° SW
IDEFIX/ARIANE 42P 2.5 06:13:19 10° N 06:18:28 70° WNW 06:23:37 10° SSW
Cosmos 1900 4.5 06:14:46 10° SW 06:19:48 57° WNW 06:24:54 10° NNE
MSX 4.1 06:14:56 10° NNE 06:20:43 74° ESE 06:26:27 10° S
CZ-2C R/B 2.5 06:16:22 10° NNE 06:21:35 87° W 06:26:37 10° SSW
CZ-4 R/B 4.3 06:19:24 10° NE 06:22:26 21° E 06:25:30 10° SSE
PAYLOAD A 4.1 06:18:04 10° N 06:23:14 58° WNW 06:28:30 10° SSW
Meteor 2-6 Rocket 4.4 06:17:57 10° N 06:23:51 84° E 06:29:49 10° S
Hubble Space Telescope 1.9 06:20:44 11° WSW 06:24:24 37° S 06:28:14 10° ESE
USA 229 DEB 4.0 06:19:53 10° NW 06:26:55 56° WSW 06:34:04 10° S
USA 229 4.0 06:19:58 10° NW 06:27:01 57° WSW 06:34:11 10° SSE
Cosmos 968 Rocket 3.5 06:21:56 10° NNW 06:27:14 88° W 06:32:29 10° SSE
Cosmos 1703 Rocket 3.8 06:28:34 10° NNW 06:32:45 47° W 06:36:54 10° SSW
Cosmos 1943 3.2 06:27:47 10° SSW 06:33:28 81° WNW 06:39:11 10° NNE
Cosmos 1869 Rocket 3.9 06:29:49 10° SSW 06:33:57 43° W 06:38:09 10° N
Cosmos 1943 Rocket 3.8 06:30:48 10° N 06:35:56 34° ENE 06:41:00 10° SE
SJ-12 3.8 06:34:25 10° N 06:38:32 74° WNW 06:42:35 10° SSW
Cosmos 1825 3.2 06:38:03 10° SW 06:41:10 24° WNW 06:44:18 10° NNW
Lacrosse 5 rocket 3.3 06:39:07 10° WNW 06:41:59 16° NW 06:44:53 10° N
CSL-04 Rocket 4.2 06:37:29 10° NNE 06:42:58 66° ESE 06:48:28 10° S
PSLV R/B 4.4 06:41:34 10° WNW 06:44:15 26° N 06:47:01 10° NE
Cosmos 1891 Rocket 4.5 06:39:20 10° N 06:45:24 89° W 06:51:32 10° S
Aureole 3 2.8 06:43:08 10° S 06:46:26 82° E 06:49:25 10° N
Meteor 1-27 Rocket 4.0 06:40:41 10° N 06:46:33 82° E 06:52:15 10° S
ATLAS 5 CENTAUR R/B 1.7 06:42:33 10° SW 06:46:59 58° WNW 06:51:48 10° NNE
COSMO-SKYMED 1 3.7 06:45:36 10° SSW 06:49:08 24° W 06:52:42 10° NW
Atlas Centaur 2 3.8 06:45:38 10° W 06:53:25 46° SSW 07:01:23 10° SE
